When you browse on this site, cookies collect data to enhance your experience and personalize the content and advertising you see.
Visit our Privacy Policy to learn more. By continuing to use the site, you agree to this use of cookies and data.
  • In Hungary
  • List of Countries
  • For 7 days
  • Water Temperature
  • Weather Map
  • News
  • Weather Widgets
  • user-avatar
    Login

    Hourly Weather Dejr az-Zaur

    Today, 12 November, Tuesday

    Time Temperature Precipitation Wind Pressure Humidity
    00:00 +20°C° 0 mm 1 mps 745 mmHg 28%
    01:00 +20°C° 0 mm 1 mps 745 mmHg 28%
    02:00 +19°C° 0 mm 1 mps 745 mmHg 28%
    03:00 +19°C° 0 mm 1 mps 745 mmHg 28%
    04:00 +18°C° 0 mm 2 mps 745 mmHg 28%
    05:00 +18°C° 0 mm 2 mps 745 mmHg 28%
    06:00 +17°C° 0 mm 2 mps 745 mmHg 28%
    07:00 +19°C° 0 mm 1 mps 745 mmHg 26%
    08:00 +20°C° 0 mm 1 mps 746 mmHg 24%
    09:00 +21°C° 0 mm 1 mps 746 mmHg 22%
    10:00 +23°C° 0 mm 1 mps 746 mmHg 20%
    11:00 +22°C° 0 mm 0 mps 746 mmHg 19%
    12:00 +23°C° 0 mm 0 mps 746 mmHg 17%
    13:00 +23°C° 0 mm 0 mps 745 mmHg 17%
    14:00 +24°C° 0 mm 0 mps 745 mmHg 16%
    15:00 +24°C° 0 mm 0 mps 745 mmHg 16%
    16:00 +25°C° 0 mm 1 mps 745 mmHg 19%
    17:00 +24°C° 0 mm 1 mps 745 mmHg 22%
    18:00 +22°C° 0 mm 1 mps 745 mmHg 25%
    19:00 +22°C° 0 mm 1 mps 745 mmHg 27%
    20:00 +21°C° 0 mm 1 mps 744 mmHg 28%
    21:00 +18°C° 0 mm 0 mps 744 mmHg 29%
    22:00 +18°C° 0 mm 0 mps 744 mmHg 30%
    23:00 +17°C° 0 mm 0 mps 745 mmHg 30%

    Tomorrow, 13 November, Wednesday

    Time Temperature Precipitation Wind Pressure Humidity
    00:00 +17°C° 0 mm 0 mps 745 mmHg 31%
    01:00 +17°C° 0 mm 0 mps 744 mmHg 31%
    02:00 +16°C° 0 mm 0 mps 744 mmHg 32%
    03:00 +16°C° 0 mm 0 mps 744 mmHg 32%
    04:00 +16°C° 0 mm 0 mps 744 mmHg 32%
    05:00 +15°C° 0 mm 0 mps 744 mmHg 32%
    06:00 +15°C° 0 mm 0 mps 744 mmHg 33%
    07:00 +17°C° 0 mm 0 mps 744 mmHg 29%
    08:00 +19°C° 0 mm 0 mps 745 mmHg 26%
    09:00 +22°C° 0 mm 1 mps 745 mmHg 23%
    10:00 +23°C° 0 mm 1 mps 745 mmHg 21%
    11:00 +24°C° 0 mm 1 mps 745 mmHg 19%
    12:00 +25°C° 0 mm 1 mps 744 mmHg 18%
    13:00 +26°C° 0 mm 1 mps 744 mmHg 18%
    14:00 +26°C° 0 mm 1 mps 744 mmHg 17%
    15:00 +27°C° 0 mm 1 mps 743 mmHg 17%
    16:00 +25°C° 0 mm 2 mps 743 mmHg 19%
    17:00 +24°C° 0 mm 2 mps 743 mmHg 21%
    18:00 +23°C° 0 mm 2 mps 743 mmHg 24%
    19:00 +23°C° 0 mm 2 mps 743 mmHg 24%
    20:00 +21°C° 0 mm 2 mps 743 mmHg 25%
    21:00 +21°C° 0 mm 2 mps 744 mmHg 26%
    22:00 +21°C° 0 mm 2 mps 744 mmHg 26%
    23:00 +21°C° 0 mm 2 mps 744 mmHg 25%

    Day after tomorrow, 14 November, Thursday

    Time Temperature Precipitation Wind Pressure Humidity
    00:00 +21°C° 0 mm 2 mps 744 mmHg 25%
    01:00 +20°C° 0 mm 2 mps 743 mmHg 25%
    02:00 +20°C° 0 mm 2 mps 743 mmHg 26%
    03:00 +20°C° 0 mm 2 mps 743 mmHg 26%
    04:00 +20°C° 0 mm 2 mps 743 mmHg 27%
    05:00 +19°C° 0 mm 2 mps 743 mmHg 28%
    06:00 +19°C° 0 mm 2 mps 743 mmHg 29%
    07:00 +19°C° 0 mm 2 mps 743 mmHg 29%
    08:00 +20°C° 0 mm 3 mps 744 mmHg 29%
    09:00 +21°C° 0 mm 3 mps 744 mmHg 28%
    10:00 +22°C° 0 mm 3 mps 744 mmHg 27%
    11:00 +23°C° 0 mm 4 mps 743 mmHg 26%
    12:00 +26°C° 0 mm 4 mps 743 mmHg 25%
    13:00 +26°C° 0 mm 4 mps 743 mmHg 25%
    14:00 +26°C° 0 mm 5 mps 742 mmHg 24%
    15:00 +27°C° 0 mm 5 mps 742 mmHg 24%
    16:00 +26°C° 0.1 mm 4 mps 742 mmHg 27%
    17:00 +25°C° 0.1 mm 3 mps 742 mmHg 29%
    18:00 +24°C° 0.1 mm 2 mps 742 mmHg 32%
    19:00 +23°C° 0.2 mm 2 mps 742 mmHg 33%
    20:00 +23°C° 0.2 mm 2 mps 742 mmHg 34%
    21:00 +23°C° 0.2 mm 2 mps 743 mmHg 35%
    22:00 +21°C° 0.1 mm 2 mps 743 mmHg 35%
    23:00 +21°C° 0.1 mm 3 mps 743 mmHg 35%

    15 November, Friday

    Time Temperature Precipitation Wind Pressure Humidity
    00:00 +21°C° 0.1 mm 3 mps 743 mmHg 35%
    01:00 +21°C° 0 mm 3 mps 743 mmHg 39%
    02:00 +20°C° 0 mm 3 mps 743 mmHg 44%
    03:00 +19°C° 0 mm 3 mps 743 mmHg 48%
    04:00 +19°C° 0 mm 2 mps 743 mmHg 54%
    05:00 +19°C° 0 mm 2 mps 743 mmHg 59%
    06:00 +18°C° 0 mm 2 mps 743 mmHg 64%
    07:00 +19°C° 0 mm 2 mps 743 mmHg 63%
    08:00 +19°C° 0 mm 2 mps 743 mmHg 61%
    09:00 +20°C° 0 mm 2 mps 744 mmHg 59%
    10:00 +21°C° 0 mm 2 mps 744 mmHg 54%
    11:00 +23°C° 0 mm 2 mps 743 mmHg 49%
    12:00 +24°C° 0 mm 2 mps 743 mmHg 44%
    13:00 +24°C° 0 mm 2 mps 743 mmHg 43%
    14:00 +25°C° 0 mm 2 mps 743 mmHg 41%
    15:00 +25°C° 0 mm 2 mps 743 mmHg 39%
    16:00 +25°C° 0 mm 2 mps 743 mmHg 42%
    17:00 +24°C° 0 mm 2 mps 742 mmHg 45%
    18:00 +23°C° 0 mm 2 mps 742 mmHg 48%
    19:00 +21°C° 0 mm 2 mps 743 mmHg 50%
    20:00 +21°C° 0 mm 2 mps 743 mmHg 52%
    21:00 +20°C° 0 mm 2 mps 743 mmHg 54%
    22:00 +20°C° 0 mm 2 mps 743 mmHg 56%
    23:00 +19°C° 0 mm 2 mps 743 mmHg 58%

    16 November, Saturday

    Time Temperature Precipitation Wind Pressure Humidity
    00:00 +19°C° 0 mm 2 mps 743 mmHg 60%
    01:00 +19°C° 0 mm 2 mps 742 mmHg 61%
    02:00 +18°C° 0 mm 2 mps 742 mmHg 62%
    03:00 +19°C° 0 mm 1 mps 742 mmHg 64%
    04:00 +19°C° 0 mm 1 mps 742 mmHg 65%
    05:00 +18°C° 0 mm 1 mps 742 mmHg 66%
    06:00 +16°C° 0 mm 0 mps 742 mmHg 67%
    07:00 +19°C° 0 mm 1 mps 742 mmHg 63%
    08:00 +20°C° 0 mm 1 mps 743 mmHg 59%
    09:00 +21°C° 0 mm 1 mps 743 mmHg 55%
    10:00 +22°C° 0 mm 1 mps 743 mmHg 52%
    11:00 +23°C° 0 mm 2 mps 743 mmHg 48%
    12:00 +23°C° 0 mm 2 mps 743 mmHg 45%
    13:00 +24°C° 0 mm 2 mps 743 mmHg 42%
    14:00 +24°C° 0 mm 2 mps 742 mmHg 40%
    15:00 +24°C° 0 mm 2 mps 742 mmHg 38%
    16:00 +24°C° 0 mm 2 mps 742 mmHg 40%
    17:00 +23°C° 0 mm 2 mps 742 mmHg 43%
    18:00 +21°C° 0 mm 2 mps 742 mmHg 46%
    19:00 +21°C° 0 mm 2 mps 742 mmHg 48%
    20:00 +20°C° 0 mm 2 mps 743 mmHg 50%
    21:00 +19°C° 0 mm 2 mps 743 mmHg 52%
    22:00 +19°C° 0 mm 2 mps 743 mmHg 53%
    23:00 +19°C° 0 mm 2 mps 743 mmHg 55%

    17 November, Sunday

    Time Temperature Precipitation Wind Pressure Humidity
    00:00 +18°C° 0 mm 2 mps 743 mmHg 56%
    01:00 +18°C° 0 mm 2 mps 743 mmHg 58%
    02:00 +18°C° 0 mm 1 mps 743 mmHg 61%
    03:00 +18°C° 0 mm 1 mps 743 mmHg 64%
    04:00 +16°C° 0 mm 1 mps 743 mmHg 64%
    05:00 +16°C° 0 mm 1 mps 743 mmHg 65%
    06:00 +16°C° 0 mm 1 mps 744 mmHg 66%
    07:00 +17°C° 0 mm 2 mps 744 mmHg 59%
    08:00 +17°C° 0 mm 3 mps 744 mmHg 53%
    09:00 +18°C° 0 mm 3 mps 745 mmHg 47%
    10:00 +19°C° 0 mm 3 mps 745 mmHg 42%
    11:00 +20°C° 0 mm 3 mps 744 mmHg 36%
    12:00 +21°C° 0 mm 3 mps 744 mmHg 31%
    13:00 +21°C° 0 mm 2 mps 744 mmHg 29%
    14:00 +23°C° 0 mm 2 mps 744 mmHg 28%
    15:00 +23°C° 0 mm 2 mps 743 mmHg 27%
    16:00 +21°C° 0 mm 2 mps 743 mmHg 29%
    17:00 +20°C° 0 mm 2 mps 743 mmHg 32%
    18:00 +19°C° 0 mm 2 mps 743 mmHg 35%
    19:00 +19°C° 0 mm 2 mps 743 mmHg 37%
    20:00 +18°C° 0 mm 2 mps 743 mmHg 39%
    21:00 +18°C° 0 mm 2 mps 744 mmHg 41%
    22:00 +18°C° 0 mm 2 mps 743 mmHg 43%
    23:00 +17°C° 0 mm 2 mps 743 mmHg 46%
    Show more